RPC2252 RPLU-RPLS

Flight info

Callsign RPC2252
Flight time 0h -16m
Altitude 5000
Route RPLU RPLS
Aircraft YS11/M-DOV/C

Departure

Time 2026-04-22 18:08
Airport Lubang Airport (RPLU)

Arrival

Time 2026-04-22 17:52
Airport Danilo Atienza Air Base (RPLS)
Time Latitude Longitude Altitude Speed Heading
2026-04-22 17:52 14.49062 120.89383 12 ft 0 kts 249°
2026-04-22 17:52 14.49062 120.89381 12 ft 1 kts 267°
2026-04-22 17:52 14.49071 120.89369 12 ft 5 kts 321°
2026-04-22 17:52 14.49091 120.89359 12 ft 5 kts 347°
2026-04-22 17:53 14.49131 120.89377 12 ft 7 kts 66°
2026-04-22 17:53 14.49135 120.89417 12 ft 1 kts 73°
2026-04-22 17:54 14.49204 120.89588 10 ft 66 kts 66°
2026-04-22 17:54 14.49460 120.90219 15 ft 121 kts 68°
2026-04-22 17:54 14.49794 120.91113 268 ft 134 kts 71°
2026-04-22 17:55 14.49980 120.91705 550 ft 132 kts 77°
2026-04-22 17:55 14.50288 120.92995 905 ft 139 kts 78°
2026-04-22 17:55 14.50787 120.93810 1325 ft 140 kts 36°
2026-04-22 17:55 14.51777 120.94164 1331 ft 174 kts
2026-04-22 17:56 14.53054 120.94034 1471 ft 188 kts 353°
2026-04-22 17:56 14.54406 120.93657 1413 ft 214 kts 335°
2026-04-22 17:56 14.55444 120.92618 1982 ft 206 kts 299°
2026-04-22 17:56 14.55624 120.91122 2108 ft 222 kts 268°
2026-04-22 17:57 14.55505 120.89568 2591 ft 215 kts 268°
2026-04-22 17:57 14.55459 120.87941 2512 ft 236 kts 273°
2026-04-22 17:57 14.55507 120.86324 3058 ft 225 kts 272°
2026-04-22 17:57 14.55397 120.84624 2864 ft 248 kts 261°
2026-04-22 17:58 14.54988 120.82792 2394 ft 275 kts 254°
2026-04-22 17:58 14.54420 120.80893 2340 ft 275 kts 251°
2026-04-22 17:58 14.54017 120.79160 3265 ft 237 kts 268°
2026-04-22 17:58 14.53919 120.77341 2980 ft 258 kts 267°
2026-04-22 17:59 14.53704 120.75574 3379 ft 247 kts 261°
2026-04-22 17:59 14.53427 120.73787 3313 ft 256 kts 262°
2026-04-22 17:59 14.53143 120.71916 3053 ft 271 kts 256°
2026-04-22 17:59 14.52191 120.70251 2937 ft 274 kts 225°
2026-04-22 18:00 14.51272 120.69312 2892 ft 275 kts 225°
2026-04-22 18:00 14.49590 120.67430 3192 ft 262 kts 227°
2026-04-22 18:00 14.48362 120.66084 3540 ft 249 kts 226°
2026-04-22 18:00 14.47178 120.64806 3598 ft 245 kts 224°
2026-04-22 18:01 14.45935 120.63625 3614 ft 241 kts 219°
2026-04-22 18:01 14.44658 120.62512 3496 ft 244 kts 219°
2026-04-22 18:01 14.43323 120.61413 3383 ft 244 kts 214°
2026-04-22 18:01 14.42007 120.60261 3226 ft 248 kts 224°
2026-04-22 18:02 14.40778 120.59029 3032 ft 247 kts 221°
2026-04-22 18:02 14.39569 120.57787 2955 ft 241 kts 226°
2026-04-22 18:02 14.38474 120.56458 2780 ft 236 kts 230°
2026-04-22 18:02 14.37533 120.55209 3096 ft 212 kts 232°
2026-04-22 18:03 14.36553 120.54006 2808 ft 219 kts 225°
2026-04-22 18:03 14.35485 120.52937 2798 ft 211 kts 224°
2026-04-22 18:03 14.34463 120.51823 2591 ft 216 kts 230°
2026-04-22 18:03 14.33508 120.50590 2459 ft 214 kts 231°
2026-04-22 18:04 14.32638 120.49421 2559 ft 203 kts 231°
2026-04-22 18:04 14.31777 120.48256 2469 ft 202 kts 230°
2026-04-22 18:04 14.30862 120.47170 2411 ft 200 kts 226°
2026-04-22 18:04 14.29896 120.46130 2247 ft 204 kts 225°
2026-04-22 18:05 14.29246 120.45405 2180 ft 204 kts 228°
2026-04-22 18:05 14.27955 120.43942 1934 ft 210 kts 224°
2026-04-22 18:05 14.26933 120.42952 2116 ft 192 kts 221°
2026-04-22 18:05 14.25949 120.41979 1818 ft 208 kts 225°
2026-04-22 18:06 14.24925 120.40867 1595 ft 210 kts 226°
2026-04-22 18:06 14.23964 120.39781 1620 ft 204 kts 227°
2026-04-22 18:06 14.22978 120.38662 1364 ft 212 kts 226°
2026-04-22 18:06 14.21957 120.37563 1272 ft 211 kts 225°
2026-04-22 18:07 14.21242 120.36870 1160 ft 213 kts 221°
2026-04-22 18:07 14.19787 120.35500 1096 ft 212 kts 223°
2026-04-22 18:07 14.18757 120.34393 1048 ft 213 kts 229°
2026-04-22 18:07 14.17862 120.33151 973 ft 215 kts 238°
2026-04-22 18:08 14.17104 120.31844 1036 ft 211 kts 239°
2026-04-22 18:08 14.16354 120.30528 1039 ft 212 kts 240°
2026-04-22 18:08 14.15611 120.29196 997 ft 216 kts 238°
2026-04-22 18:08 14.14538 120.28123 895 ft 218 kts 207°
2026-04-22 18:09 14.13182 120.27601 1168 ft 204 kts 196°
2026-04-22 18:09 14.11816 120.27099 1204 ft 207 kts 199°
2026-04-22 18:09 14.10472 120.26549 1317 ft 206 kts 200°
2026-04-22 18:09 14.09158 120.25980 1403 ft 206 kts 201°
2026-04-22 18:10 14.07823 120.25359 1426 ft 211 kts 202°
2026-04-22 18:10 14.06489 120.24681 1484 ft 212 kts 207°
2026-04-22 18:10 14.05260 120.23883 1663 ft 208 kts 213°
2026-04-22 18:10 14.04046 120.23027 1701 ft 211 kts 212°
2026-04-22 18:11 14.02869 120.22103 1735 ft 214 kts 220°
2026-04-22 18:11 14.01786 120.21034 1765 ft 217 kts 223°
2026-04-22 18:11 14.00712 120.19948 1877 ft 214 kts 219°
2026-04-22 18:11 13.99507 120.19024 1824 ft 219 kts 210°
2026-04-22 18:12 13.98207 120.18162 1833 ft 217 kts 211°
2026-04-22 18:12 13.96971 120.17286 1793 ft 212 kts 213°
2026-04-22 18:12 13.96173 120.16717 1740 ft 210 kts 212°
2026-04-22 18:12 13.94524 120.15564 1476 ft 215 kts 212°
2026-04-22 18:13 13.93322 120.14719 1513 ft 205 kts 214°
2026-04-22 18:13 13.92254 120.13728 1433 ft 204 kts 224°
2026-04-22 18:13 13.91272 120.12677 1360 ft 202 kts 225°
2026-04-22 18:13 13.90274 120.11626 1237 ft 204 kts 223°
2026-04-22 18:14 13.89352 120.10514 1123 ft 206 kts 233°
2026-04-22 18:14 13.88526 120.09330 1029 ft 207 kts 236°
2026-04-22 18:14 13.87728 120.08097 1098 ft 187 kts 231°
2026-04-22 18:14 13.87015 120.07171 1219 ft 173 kts 231°
2026-04-22 18:15 13.86378 120.06147 1229 ft 160 kts 239°
2026-04-22 18:15 13.85902 120.05246 1462 ft 135 kts 243°
2026-04-22 18:15 13.85217 120.04513 1014 ft 150 kts 201°
2026-04-22 18:15 13.84244 120.04442 916 ft 128 kts 158°
2026-04-22 18:16 13.83499 120.04846 801 ft 114 kts 128°
2026-04-22 18:16 13.83225 120.05548 652 ft 109 kts 86°
2026-04-22 18:16 13.83533 120.06263 503 ft 116 kts 53°
2026-04-22 18:16 13.83962 120.06950 482 ft 112 kts 65°
2026-04-22 18:17 13.84260 120.07674 517 ft 105 kts 68°
2026-04-22 18:17 13.84573 120.08384 573 ft 113 kts 63°
2026-04-22 18:17 13.84923 120.09122 348 ft 115 kts 66°
2026-04-22 18:17 13.85226 120.09827 123 ft 104 kts 67°
2026-04-22 18:18 13.85522 120.10477 62 ft 84 kts 68°
2026-04-22 18:18 13.85664 120.10789 66 ft 24 kts 64°
2026-04-22 18:18 13.85711 120.10889 66 ft 7 kts 65°
2026-04-22 18:18 13.85695 120.10910 66 ft 3 kts 178°
2026-04-22 18:19 13.85679 120.10905 66 ft 13 kts 200°
2026-04-22 18:19 13.85638 120.10879 66 ft 3 kts 249°
2026-04-22 18:19 13.85620 120.10871 66 ft 2 kts 158°
2026-04-22 18:19 13.85613 120.10876 66 ft 0 kts 120°
2026-04-22 18:20 13.85612 120.10880 66 ft 1 kts 94°
2026-04-22 18:20 13.85613 120.10884 66 ft 0 kts 65°